Погода в Севастополе

Россия / Республика Крым     44°33′25″N   33°31′35″E
темп.,
°C
ветер,
м/с
пор.,
м/с
влажн.,
%
обл.,
%
осадки,
мм/ч
давл.,
гПа
погр.,
м
18 апреля, вс
вс1800:00+9с2269100 0.0 101746
03:00+9ссв446965 0.0 1017121
06:00+9св346490 0.0 101781
09:00+10ююв236497 0.0 101653
12:00+11зюз127397 0.0 1017146
15:00+10св127540 0.0 1016197
18:00+10юв12807 0.0 1015162
21:00+10юв2288100 0.0 101635
19 апреля, пн
пн1900:00+10св2286100 0.0 101532
03:00+10св1287100 0.1 101538
06:00+10ссв1187100 0.1 101426
09:00+10юз118597 0.1 101588
12:00+11з2287100 0.0 1015280
15:00+11сз2286100 0.0 1013271
18:00+11юв4492100 0.4 1012181
21:00+11юв5692100 1.1 1011128
20 апреля, вт
вт2000:00+11юв71098100 3.9 1008299
03:00+10юв8997100 8.9 1006278
06:00+10ююз8149484 1.6 1004541
09:00+10юз91287100 1.6 1005642
12:00+10зюз101489100 0.1 1007748
15:00+9зюз101293100 0.4 1008790
18:00+9з5891100 0.1 1010555
21:00+9зсз359296 0.2 1013278
21 апреля, ср
ср2100:00+9зюз239074 0.1 1015126
03:00+9юз3491100 0.2 1015143
06:00+9ююз3391100 0.3 101668
09:00+10юз3486100 0.4 1018193
12:00+11юз348252 0.1 1019336
15:00+11ююз45825 0.1 1019342
18:00+11юз3484100 0.0 1019235
21:00+10ю2287100 0.0 102025
22 апреля, чт
чт2200:00+10ююв33845 0.0 102133
03:00+10ююв33875 0.0 102151
06:00+9ююв33867 0.0 102234
09:00+11ю348092 0.0 1023149
12:00+11ю457763 0.0 1023284
15:00+12ю45755 0.0 1023273
18:00+11ю45800 0.0 1022196
21:00+10ююв33830 0.0 102232